Ocean City, MD

11:17 AM EDT on July 26, 2017 (GMT -0400)
Ocean City Municipal

Weather History for KOXB - March, 2013

Change the Weather History Date:

Monday, March 11, 2013

  Actual Average (KSBY) Record (KSBY)
Temperature  
Mean Temperature 38 °F -  
Max Temperature 45 °F 55 °F 76 °F (1986)
Min Temperature 33 °F 31 °F 10 °F (1960)
Degree Days  
Heating Degree Days 28    
Moisture  
Dew Point 37 °F    
Average Humidity 100    
Maximum Humidity 100    
Minimum Humidity 93    
Precipitation  
Precipitation 0.00 in - - ()
Sea Level Pressure  
Sea Level Pressure 30.26 in    
Wind  
Wind Speed 1 mph (SE)    
Max Wind Speed 5 mph    
Max Gust Speed -    
Visibility 2 miles    
Events Fog    
Averages and records for this station are not official NWS values.
T = Trace of Precipitation, MM = Missing Value Source: NWS Daily Summary

Daily Weather History Graph

Daily Weather History Graph

Search for Another Location

Airport or City:

Trip Planner

Search our weather history database for the weather conditions in past years. The results will help you decide how hot, cold, wet, or windy it might be!

Date:

Astronomy

Mar. 11, 2013 Rise Set
Actual Time 7:17 AM EDT 7:03 PM EDT
Civil Twilight 6:51 AM EDT 7:30 PM EDT
Nautical Twilight 6:20 AM EDT 8:00 PM EDT
Astronomical Twilight 5:49 AM EDT 8:31 PM EDT
Moon 6:50 AM EDT (3/11) 7:12 PM EDT (3/11)
Length of Visible Light 12h 39m
Length of Day
11h 46m
Waning Crescent, 0% of the Moon is Illuminated
Mar 11
Waning Crescent
Mar 11
New
Mar 19
First Quarter
Mar 27
Full
Apr 3
Last Quarter

Hourly Weather History & Observations

Time (EDT) Temp. Windchill Dew Point Humidity Pressure Visibility Wind Dir Wind Speed Gust Speed Precip Events Conditions
12:53 AM 39.9 °F - 39.9 °F 100% 30.30 in 5.0 mi Calm Calm - N/A   Clear
1:14 AM 37.4 °F - 37.4 °F 100% 30.30 in 1.8 mi Calm Calm - N/A   Partly Cloudy
1:27 AM 35.6 °F - 33.8 °F 93% 30.30 in 1.2 mi Calm Calm - N/A   Mostly Cloudy
1:53 AM 35.1 °F - 35.1 °F 100% 30.29 in 1.8 mi Calm Calm - N/A   Scattered Clouds
2:09 AM 37.4 °F - 37.4 °F 100% 30.29 in 2.5 mi Calm Calm - N/A   Mostly Cloudy
2:19 AM 33.8 °F - 33.8 °F 100% 30.29 in 1.2 mi Calm Calm - N/A   Mostly Cloudy
2:31 AM 33.8 °F - 33.8 °F 100% 30.29 in 0.8 mi Calm Calm - N/A   Mist
2:53 AM 36.0 °F - 36.0 °F 100% 30.28 in 1.5 mi Calm Calm - N/A   Mostly Cloudy
2:59 AM 35.6 °F - 35.6 °F 100% 30.27 in 2.0 mi Calm Calm - N/A   Scattered Clouds
3:02 AM 35.6 °F - 35.6 °F 100% 30.28 in 1.8 mi Calm Calm - N/A   Mostly Cloudy
3:13 AM 35.6 °F 32.8 °F 35.6 °F 100% 30.27 in 0.8 mi SE 3.5 mph - N/A   Mist
3:20 AM 35.6 °F 32.8 °F 35.6 °F 100% 30.27 in 1.0 mi SSE 3.5 mph - N/A   Mist
3:39 AM 39.2 °F 37.0 °F 39.2 °F 100% 30.25 in 2.0 mi SE 3.5 mph - N/A   Overcast
3:46 AM 39.2 °F 37.0 °F 39.2 °F 100% 30.24 in 1.8 mi SE 3.5 mph - N/A   Overcast
3:53 AM 39.9 °F - 39.9 °F 100% 30.25 in 2.5 mi Calm Calm - N/A   Mostly Cloudy
4:01 AM 41.0 °F - 41.0 °F 100% 30.26 in 3.0 mi Calm Calm - N/A   Mostly Cloudy
4:14 AM 39.2 °F 37.0 °F 39.2 °F 100% 30.25 in 2.5 mi SE 3.5 mph - N/A   Mostly Cloudy
4:19 AM 39.2 °F - 39.2 °F 100% 30.25 in 4.0 mi Calm Calm - N/A   Scattered Clouds
4:35 AM 39.2 °F - 39.2 °F 100% 30.25 in 1.8 mi Calm Calm - N/A   Partly Cloudy
4:41 AM 37.4 °F - 37.4 °F 100% 30.25 in 0.8 mi Calm Calm - N/A   Mist
4:53 AM 37.0 °F - 37.0 °F 100% 30.25 in 0.5 mi Calm Calm - N/A Fog Fog
5:17 AM 35.6 °F - 35.6 °F 100% 30.24 in 1.0 mi Calm Calm - N/A   Mist
5:24 AM 33.8 °F - 33.8 °F 100% 30.24 in 0.5 mi Calm Calm - N/A Fog Fog
5:36 AM 35.6 °F 32.8 °F 33.8 °F 93% 30.24 in 0.2 mi SE 3.5 mph - N/A Fog Fog
5:44 AM 37.4 °F - 37.4 °F 100% 30.24 in 0.5 mi Calm Calm - N/A Fog Fog
5:53 AM 37.0 °F - 37.0 °F 100% 30.24 in 1.2 mi Calm Calm - N/A   Mostly Cloudy
6:01 AM 39.2 °F - 39.2 °F 100% 30.23 in 3.0 mi Calm Calm - N/A   Scattered Clouds
6:53 AM 42.1 °F 39.2 °F 42.1 °F 100% 30.23 in 6.0 mi SSE 4.6 mph - N/A   Clear
8:53 AM 45.0 °F 42.6 °F 45.0 °F 100% 30.23 in 6.0 mi Variable 4.6 mph - N/A   Clear